W2PJ Weather Reports


Display with metric or nautical units.
time (UTC)temp
F
wind
direction
speed
MPH
gust
MPH
rain 1hr
in
rain 24hr
in
rain mn
in
humidity
%
barometer
mb
20260906021031 63 307 0.0 0.0 0.00 0.00 0.00 91 1014.9
20260906020550 63 301 0.0 0.0 0.00 0.00 0.00 91 1014.9
20260906020120 63 302 0.0 0.0 0.00 0.00 0.00 91 1014.9
20260906015506 63 349 0.0 0.0 0.00 0.00 0.00 91 1014.9
20260906015024 63 339 0.0 0.0 0.00 0.00 0.00 91 1014.8
20260906014547 63 18 0.0 0.0 0.00 0.00 0.00 90 1014.8
20260906014054 63 20 0.0 0.0 0.00 0.00 0.00 90 1014.8
20260906013617 63 20 0.0 0.0 0.00 0.00 0.00 90 1014.8
20260906013034 63 21 0.0 0.0 0.00 0.00 0.00 90 1014.8
20260906012552 63 14 0.0 0.0 0.00 0.00 0.00 90 1014.8
20260906012111 63 5 0.0 0.0 0.00 0.00 0.00 90 1014.8
20260906011638 63 12 0.0 0.0 0.00 0.00 0.00 90 1014.7
20260906011011 63 13 0.0 0.0 0.00 0.00 0.00 89 1014.7
20260906010534 63 13 0.0 0.0 0.00 0.00 0.00 89 1014.7
20260906010128 63 3 0.0 0.0 0.00 0.00 0.00 89 1014.7
20260906005613 63 20 0.0 0.0 0.00 0.00 0.00 89 1014.7
20260906005126 64 1 0.0 0.0 0.00 0.00 0.00 89 1014.8
20260906004547 64 8 0.0 0.0 0.00 0.00 0.00 88 1014.7
20260906004058 64 318 0.0 0.0 0.00 0.00 0.00 88 1014.6
20260906003620 64 18 0.0 0.0 0.00 0.00 0.00 88 1014.6
20260906003040 64 13 0.0 0.0 0.00 0.00 0.00 88 1014.6
20260906002559 64 25 0.0 0.0 0.00 0.00 0.00 87 1014.5
20260906002119 64 10 0.0 0.0 0.00 0.00 0.00 87 1014.4
20260906001550 64 351 0.0 0.0 0.00 0.00 0.00 87 1014.5
20260906001054 65 29 0.0 0.0 0.00 0.00 0.00 87 1014.5
20260906000614 65 355 0.0 0.0 0.00 0.00 0.00 86 1014.5
20260906000138 65 8 0.0 0.0 0.00 0.00 0.00 86 1014.5
20260905235516 65 45 0.0 0.0 0.00 0.00 0.00 86 1014.4
20260905235032 65 297 0.0 0.0 0.00 0.00 0.00 85 1014.3
20260905234550 66 337 0.0 0.0 0.00 0.00 0.00 85 1014.3
20260905234110 66 302 0.0 0.0 0.00 0.00 0.00 84 1014.2
20260905233632 66 9 0.0 0.0 0.00 0.00 0.00 84 1014.3
20260905233152 67 278 0.0 0.0 0.00 0.00 0.00 83 1014.2
20260905232508 67 347 0.0 0.0 0.00 0.00 0.00 82 1014.2
20260905232024 68 5 0.0 0.0 0.00 0.00 0.00 82 1014.1
20260905231542 68 309 0.0 0.0 0.00 0.00 0.00 81 1014.1
20260905231100 68 318 0.0 0.0 0.00 0.00 0.00 80 1014.1
20260905230616 68 55 0.0 0.0 0.00 0.00 0.00 80 1014.1
20260905230035 69 341 0.0 0.0 0.00 0.00 0.00 79 1014.0
20260905225549 69 3 0.0 0.0 0.00 0.00 0.00 79 1014.0
20260905225112 69 310 0.0 4.0 0.00 0.00 0.00 78 1014.1
20260905224641 69 357 0.0 6.0 0.00 0.00 0.00 77 1014.1
20260905224006 70 312 0.0 6.0 0.00 0.00 0.00 77 1014.1
20260905223524 70 65 0.0 6.0 0.00 0.00 0.00 77 1014.0
20260905223056 70 325 0.0 5.0 0.00 0.00 0.00 77 1014.2
20260905222610 70 325 0.0 5.0 0.00 0.00 0.00 76 1014.1
20260905222127 70 328 0.0 4.0 0.00 0.00 0.00 76 1014.1
20260905221646 70 355 0.0 4.0 0.00 0.00 0.00 76 1013.9
20260905221006 70 306 0.0 9.0 0.00 0.00 0.00 75 1013.9
20260905220530 71 304 1.0 9.0 0.00 0.00 0.00 73 1013.9
20260905220040 71 10 0.0 1.0 0.00 0.00 0.00 74 1013.7
20260905215556 71 325 0.0 7.0 0.00 0.00 0.00 73 1013.5
20260905215114 71 335 0.0 7.0 0.00 0.00 0.00 72 1013.5
20260905214530 71 300 0.0 0.0 0.00 0.00 0.00 73 1013.5
20260905214052 71 274 0.0 1.0 0.00 0.00 0.00 73 1013.4
20260905213613 71 347 0.0 1.0 0.00 0.00 0.00 72 1013.4
20260905213139 72 341 0.0 0.0 0.00 0.00 0.00 74 1013.3
20260905212508 71 106 0.0 1.0 0.00 0.00 0.00 75 1013.2
20260905212029 70 357 0.0 6.0 0.00 0.00 0.00 76 1013.2
20260905211544 69 344 0.0 6.0 0.00 0.00 0.00 77 1013.2
20260905211058 69 31 0.0 1.0 0.00 0.00 0.00 78 1013.2
20260905210617 69 25 0.0 1.0 0.00 0.00 0.00 78 1013.2
20260905210044 69 311 0.0 0.0 0.00 0.00 0.00 78 1013.2
20260905205552 69 15 0.0 0.0 0.00 0.00 0.00 79 1013.3
20260905205115 70 50 0.0 0.0 0.00 0.00 0.00 79 1013.3
20260905204637 70 352 0.0 4.0 0.00 0.00 0.00 77 1013.3
20260905204011 70 57 0.0 0.0 0.00 0.00 0.00 77 1013.3
20260905203530 70 345 0.0 0.0 0.00 0.00 0.00 78 1013.3
20260905203042 70 337 0.0 0.0 0.00 0.00 0.00 79 1013.4
20260905202600 70 296 0.0 0.0 0.00 0.00 0.00 78 1013.3
20260905202118 70 39 0.0 0.0 0.00 0.00 0.00 77 1013.3
20260905201540 69 76 0.0 0.0 0.00 0.00 0.00 80 1013.3
20260905201055 69 316 0.0 0.0 0.00 0.00 0.00 80 1013.3
20260905200618 69 8 0.0 0.0 0.00 0.00 0.00 80 1013.4
20260905200051 69 47 0.0 0.0 0.00 0.00 0.00 79 1013.4
20260905195549 69 28 0.0 0.0 0.00 0.00 0.00 79 1013.5
20260905195111 69 338 0.0 0.0 0.00 0.00 0.00 79 1013.4
20260905194530 69 312 0.0 0.0 0.00 0.00 0.00 78 1013.4
20260905194056 70 42 0.0 0.0 0.00 0.00 0.00 78 1013.3
20260905193614 70 261 0.0 0.0 0.00 0.00 0.00 78 1013.3
20260905193138 70 5 0.0 0.0 0.00 0.00 0.00 77 1013.2
20260905192506 70 320 0.0 0.0 0.00 0.00 0.00 77 1013.2
20260905192025 70 294 0.0 0.0 0.00 0.00 0.00 77 1013.2
20260905191538 70 67 0.0 0.0 0.00 0.00 0.00 75 1013.2
20260905191054 70 51 0.0 0.0 0.00 0.00 0.00 75 1013.2
20260905190616 71 28 0.0 0.0 0.00 0.00 0.00 74 1013.2
20260905190038 71 304 0.0 0.0 0.00 0.00 0.00 73 1013.2
20260905185600 70 72 0.0 0.0 0.00 0.00 0.00 74 1013.2
20260905185117 70 352 0.0 0.0 0.00 0.00 0.00 73 1013.1
20260905184535 70 18 0.0 0.0 0.00 0.00 0.00 73 1013.2
20260905184051 70 29 0.0 0.0 0.00 0.00 0.00 72 1013.2
20260905183611 70 292 0.0 0.0 0.00 0.00 0.00 72 1013.1
20260905183139 70 15 0.0 0.0 0.00 0.00 0.00 72 1013.3
20260905182632 70 287 0.0 0.0 0.00 0.00 0.00 72 1013.3
20260905182023 70 347 0.0 0.0 0.00 0.00 0.00 76 1013.3
20260905181550 69 52 0.0 0.0 0.00 0.00 0.00 77 1013.3
20260905181107 69 10 0.0 0.0 0.00 0.00 0.00 76 1013.3
20260905180627 69 17 0.0 0.0 0.00 0.00 0.00 76 1013.3
20260905180042 69 17 0.0 0.0 0.00 0.00 0.00 76 1013.3
20260905175558 69 49 0.0 0.0 0.00 0.00 0.00 75 1013.3
20260905175116 69 360 0.0 0.0 0.00 0.00 0.00 75 1013.3
20260905174532 69 47 0.0 0.0 0.00 0.00 0.00 76 1013.3
20260905174050 69 353 0.0 0.0 0.00 0.00 0.00 74 1013.2
20260905173611 69 318 0.0 0.0 0.00 0.00 0.00 73 1013.2
20260905173137 70 10 0.0 0.0 0.00 0.00 0.00 73 1013.2
20260905172518 70 1 0.0 0.0 0.00 0.00 0.00 73 1013.3
20260905172032 70 317 0.0 5.0 0.00 0.00 0.00 72 1013.3
20260905171601 70 275 0.0 5.0 0.00 0.00 0.00 71 1013.3
20260905171113 71 36 0.0 0.0 0.00 0.00 0.00 72 1013.4
20260905170634 70 283 0.0 1.0 0.00 0.00 0.00 72 1013.4
20260905170155 70 349 0.0 6.0 0.00 0.00 0.00 72 1013.4
20260905165514 70 311 1.0 6.0 0.00 0.00 0.00 72 1013.4
20260905165032 69 318 0.0 0.0 0.00 0.00 0.00 74 1013.4
20260905164545 69 79 0.0 0.0 0.00 0.00 0.00 73 1013.4
20260905164103 69 36 0.0 0.0 0.00 0.00 0.00 75 1013.4
20260905163619 70 55 0.0 0.0 0.00 0.00 0.00 72 1013.5
20260905163148 70 49 0.0 0.0 0.00 0.00 0.00 74 1013.5
20260905162508 70 302 0.0 0.0 0.00 0.00 0.00 74 1013.6
20260905162031 69 350 0.0 3.0 0.00 0.00 0.00 73 1013.7
20260905161544 69 8 0.0 3.0 0.00 0.00 0.00 77 1013.6
20260905161104 69 273 0.0 1.0 0.00 0.00 0.00 76 1013.6
20260905160624 68 58 0.0 0.0 0.00 0.00 0.00 77 1013.6
20260905160040 68 5 0.0 1.0 0.00 0.00 0.00 76 1013.6
20260905155558 68 314 0.0 1.0 0.00 0.00 0.00 76 1013.6
20260905155119 69 307 0.0 0.0 0.00 0.00 0.00 76 1013.6
20260905154530 68 306 0.0 0.0 0.00 0.00 0.00 76 1013.6
20260905154053 68 61 0.0 1.0 0.00 0.00 0.00 78 1013.7
20260905153611 68 320 0.0 1.0 0.00 0.00 0.00 78 1013.7
20260905153036 68 3 0.0 0.0 0.00 0.00 0.00 78 1013.7
20260905152552 67 13 0.0 0.0 0.00 0.00 0.00 81 1013.8
20260905152110 67 247 0.0 0.0 0.00 0.00 0.00 81 1013.8
20260905151649 67 302 0.0 0.0 0.00 0.00 0.00 80 1013.8
20260905151008 67 5 0.0 0.0 0.00 0.00 0.00 82 1013.9
20260905150527 67 61 0.0 0.0 0.00 0.00 0.00 83 1014.0
20260905150050 66 342 0.0 0.0 0.00 0.00 0.00 83 1014.1
20260905145604 66 67 0.0 0.0 0.00 0.00 0.00 85 1014.0
20260905145124 66 306 0.0 0.0 0.00 0.00 0.00 84 1014.1
20260905144540 66 67 0.0 0.0 0.00 0.00 0.00 84 1014.0
20260905144049 67 289 0.0 0.0 0.00 0.00 0.00 83 1014.0
20260905143614 66 24 0.0 0.0 0.00 0.00 0.00 84 1013.9
20260905143144 66 355 0.0 0.0 0.00 0.00 0.00 85 1013.8
20260905142516 65 347 0.0 0.0 0.00 0.00 0.00 85 1013.8
20260905142032 65 38 0.0 0.0 0.00 0.00 0.00 85 1013.9
20260905141546 66 356 0.0 0.0 0.00 0.00 0.00 85 1013.9
20260905141058 66 29 0.0 0.0 0.00 0.00 0.00 86 1013.8
20260905140616 66 1 0.0 0.0 0.00 0.00 0.00 85 1013.9
20260905140142 65 358 0.0 0.0 0.00 0.00 0.00 85 1013.9
20260905135516 65 73 0.0 0.0 0.00 0.00 0.00 86 1013.7
20260905135035 65 10 0.0 0.0 0.00 0.00 0.00 86 1013.7
20260905134551 65 29 0.0 1.0 0.00 0.00 0.00 87 1013.7
20260905134108 65 5 0.0 1.0 0.00 0.00 0.00 87 1013.8
20260905133620 65 323 0.0 0.0 0.00 0.00 0.00 88 1013.8
20260905133149 64 5 0.0 0.0 0.00 0.00 0.00 88 1013.8
20260905132506 64 5 0.0 0.0 0.00 0.00 0.00 88 1013.9
20260905132026 64 310 0.0 0.0 0.00 0.00 0.00 89 1013.9
20260905131601 63 35 0.0 0.0 0.00 0.00 0.00 89 1013.9
20260905131110 63 46 0.0 0.0 0.00 0.00 0.00 91 1014.0
20260905130626 62 254 0.0 0.0 0.00 0.00 0.00 91 1014.1
20260905130147 62 351 0.0 0.0 0.00 0.00 0.00 91 1014.2
20260905125634 62 290 0.0 0.0 0.00 0.00 0.00 91 1014.2
20260905125024 62 254 0.0 0.0 0.00 0.00 0.00 90 1014.2
20260905124544 62 296 0.0 0.0 0.00 0.00 0.00 90 1014.2
20260905124106 62 258 0.0 0.0 0.00 0.00 0.00 90 1014.1
20260905123620 62 258 0.0 0.0 0.00 0.00 0.00 90 1014.2
20260905123034 62 296 0.0 0.0 0.00 0.00 0.00 91 1014.2
20260905122522 62 285 0.0 0.0 0.00 0.00 0.00 91 1014.1
20260905122040 62 6 0.0 0.0 0.00 0.00 0.00 91 1014.1
20260905121608 62 20 0.0 0.0 0.00 0.00 0.00 91 1014.0
20260905121123 62 20 0.0 0.0 0.00 0.00 0.00 91 1014.0
20260905120503 62 20 0.0 0.0 0.00 0.00 0.00 90 1014.1
20260905120152 62 19 0.0 0.0 0.00 0.00 0.00 91 1013.9
20260905115509 61 21 0.0 0.0 0.00 0.00 0.00 92 1013.7
20260905115026 61 20 0.0 0.0 0.00 0.00 0.00 92 1013.7
20260905114542 61 65 0.0 0.0 0.00 0.00 0.00 92 1013.7
20260905114059 61 67 0.0 0.0 0.00 0.00 0.00 92 1013.6
20260905113619 62 67 0.0 0.0 0.00 0.00 0.00 92 1013.6
20260905113144 62 67 0.0 0.0 0.00 0.00 0.00 92 1013.6
20260905112510 61 67 0.0 0.0 0.00 0.00 0.00 91 1013.6
20260905112032 60 67 0.0 0.0 0.00 0.00 0.00 91 1013.6
20260905111552 59 67 0.0 0.0 0.00 0.00 0.00 91 1013.5
20260905111106 58 67 0.0 0.0 0.00 0.00 0.00 91 1013.5
20260905110627 58 67 0.0 0.0 0.00 0.00 0.00 91 1013.4
20260905110148 57 67 0.0 0.0 0.00 0.00 0.00 91 1013.3
20260905105514 56 67 0.0 0.0 0.00 0.00 0.00 91 1013.1
20260905105034 56 67 0.0 0.0 0.00 0.00 0.00 91 1013.0
20260905104546 56 67 0.0 0.0 0.00 0.00 0.00 91 1012.9
20260905104102 56 67 0.0 0.0 0.00 0.00 0.00 91 1012.9
20260905103625 57 67 0.0 0.0 0.00 0.00 0.00 91 1012.8
20260905103029 57 67 0.0 0.0 0.00 0.00 0.00 91 1012.7
20260905102545 56 5 0.0 0.0 0.00 0.00 0.00 91 1012.7
20260905102103 56 55 0.0 0.0 0.00 0.00 0.00 91 1012.7
20260905101506 56 54 0.0 0.0 0.00 0.00 0.00 91 1012.7
20260905101025 56 55 0.0 0.0 0.00 0.00 0.00 91 1012.7
20260905100543 57 55 0.0 0.0 0.00 0.00 0.00 91 1012.7
20260905100114 57 55 0.0 0.0 0.00 0.00 0.00 91 1012.6
20260905095631 57 55 0.0 0.0 0.00 0.00 0.00 91 1012.7
20260905095020 57 55 0.0 0.0 0.00 0.00 0.00 91 1012.6
20260905094540 57 55 0.0 0.0 0.00 0.00 0.00 91 1012.7
20260905094103 57 26 0.0 0.0 0.00 0.00 0.00 91 1012.7
20260905093624 57 9 0.0 0.0 0.00 0.00 0.00 91 1012.7
20260905093028 57 9 0.0 0.0 0.00 0.00 0.00 91 1012.6
20260905092546 57 8 0.0 0.0 0.00 0.00 0.00 91 1012.6
20260905092107 57 9 0.0 0.0 0.00 0.00 0.00 91 1012.7
20260905091635 57 8 0.0 0.0 0.00 0.00 0.00 91 1012.7
20260905091011 57 9 0.0 0.0 0.00 0.00 0.00 91 1012.7
20260905090529 57 9 0.0 0.0 0.00 0.00 0.00 92 1012.7
20260905090058 57 9 0.0 0.0 0.00 0.00 0.00 92 1012.7
20260905085620 58 9 0.0 0.0 0.00 0.00 0.00 92 1012.7
20260905085001 58 8 0.0 0.0 0.00 0.00 0.00 92 1012.8
20260905084514 58 9 0.0 0.0 0.00 0.00 0.00 92 1012.8
20260905084034 58 8 0.0 0.0 0.00 0.00 0.00 92 1012.7
20260905083556 58 9 0.0 0.0 0.00 0.00 0.00 92 1012.8
20260905083101 58 9 0.0 0.0 0.00 0.00 0.00 92 1012.8
20260905082621 59 9 0.0 0.0 0.00 0.00 0.00 92 1012.7
20260905082134 59 9 0.0 0.0 0.00 0.00 0.00 92 1012.8
20260905081545 59 9 0.0 0.0 0.00 0.00 0.00 92 1012.8
20260905081105 59 8 0.0 0.0 0.00 0.00 0.00 92 1012.8
20260905080622 59 8 0.0 0.0 0.00 0.00 0.00 92 1012.9
20260905080143 59 9 0.0 0.0 0.00 0.00 0.00 92 1012.8
20260905075509 59 9 0.0 0.0 0.00 0.00 0.00 92 1012.8
20260905075034 59 28 0.0 0.0 0.00 0.00 0.00 92 1012.8
20260905074552 59 28 0.0 0.0 0.00 0.00 0.00 92 1012.8
20260905074108 60 28 0.0 0.0 0.00 0.00 0.00 92 1012.8
20260905073623 60 27 0.0 0.0 0.00 0.00 0.00 92 1012.7
20260905073145 60 27 0.0 0.0 0.00 0.00 0.00 92 1012.6
20260905072634 60 27 0.0 0.0 0.00 0.00 0.00 92 1012.7
20260905072025 61 27 0.0 0.0 0.00 0.00 0.00 92 1012.7
20260905071549 61 27 0.0 0.0 0.00 0.00 0.00 92 1012.7
20260905071112 61 341 0.0 0.0 0.00 0.00 0.00 92 1012.7
20260905070503 61 323 0.0 0.0 0.00 0.00 0.00 92 1012.8
20260905070153 61 322 0.0 0.0 0.00 0.00 0.00 92 1012.8
20260905065636 61 323 0.0 0.0 0.00 0.00 0.00 91 1012.8
20260905065019 62 323 0.0 0.0 0.00 0.00 0.00 91 1012.8
20260905064552 62 323 0.0 0.0 0.00 0.00 0.00 91 1012.7
20260905064102 62 322 0.0 0.0 0.00 0.00 0.00 91 1012.8
20260905063621 62 323 0.0 0.0 0.00 0.00 0.00 91 1012.9
20260905063144 62 323 0.0 0.0 0.00 0.00 0.00 91 1012.9
20260905062505 62 323 0.0 0.0 0.00 0.00 0.00 91 1013.0
20260905062024 63 296 0.0 0.0 0.00 0.00 0.00 91 1013.0
20260905061551 63 296 0.0 0.0 0.00 0.00 0.00 91 1013.0
20260905061106 63 296 0.0 0.0 0.00 0.00 0.00 91 1012.9
20260905060625 63 296 0.0 0.0 0.00 0.00 0.00 91 1012.9
20260905060152 63 296 0.0 0.0 0.00 0.00 0.00 91 1012.9
20260905055511 63 296 0.0 0.0 0.00 0.00 0.00 91 1012.9
20260905055030 63 296 0.0 0.0 0.00 0.00 0.00 91 1012.9
20260905054602 63 296 0.0 0.0 0.00 0.00 0.00 91 1013.0
20260905054115 63 296 0.0 0.0 0.00 0.00 0.00 91 1013.0
20260905053632 63 296 0.0 0.0 0.00 0.00 0.00 91 1013.1
20260905053101 63 310 0.0 0.0 0.00 0.00 0.00 90 1013.2
20260905052605 63 310 0.0 0.0 0.00 0.00 0.00 90 1013.2
20260905052122 63 310 0.0 0.0 0.00 0.00 0.00 90 1013.2
20260905051551 63 313 0.0 0.0 0.00 0.00 0.00 90 1013.2
20260905051057 63 313 0.0 0.0 0.00 0.00 0.00 90 1013.3
20260905050616 63 313 0.0 0.0 0.00 0.00 0.00 90 1013.2
20260905050142 63 312 0.0 0.0 0.00 0.00 0.00 90 1013.3
20260905045504 63 313 0.0 0.0 0.00 0.00 0.00 90 1013.3
20260905045025 63 304 0.0 0.0 0.00 0.00 0.00 90 1013.3
20260905044603 63 304 0.0 0.0 0.00 0.00 0.00 90 1013.3
20260905044110 63 304 0.0 0.0 0.00 0.00 0.00 90 1013.3
20260905043624 63 294 0.0 0.0 0.00 0.00 0.00 90 1013.3
20260905043153 63 294 0.0 0.0 0.00 0.00 0.00 90 1013.3
20260905042513 63 297 0.0 0.0 0.00 0.00 0.00 90 1013.3
20260905042032 63 304 0.0 0.0 0.00 0.00 0.00 90 1013.3
20260905041602 63 304 0.0 0.0 0.00 0.00 0.00 89 1013.2
20260905041123 63 280 0.0 0.0 0.00 0.00 0.00 89 1013.3
20260905040505 64 310 0.0 0.0 0.00 0.00 0.00 89 1013.3
20260905040053 64 306 0.0 0.0 0.00 0.00 0.00 89 1013.2
20260905035508 64 288 0.0 0.0 0.00 0.00 0.00 88 1013.2
20260905035024 64 258 0.0 0.0 0.00 0.00 0.00 88 1013.2
20260905034539 64 252 0.0 0.0 0.00 0.00 0.00 88 1013.2
20260905034056 64 261 0.0 0.0 0.00 0.00 0.00 87 1013.2
20260905033616 64 256 0.0 0.0 0.00 0.00 0.00 87 1013.3
20260905033145 64 293 0.0 0.0 0.00 0.00 0.00 87 1013.2
20260905032504 64 283 0.0 0.0 0.00 0.00 0.00 86 1013.2
20260905032025 64 249 0.0 0.0 0.00 0.00 0.00 86 1013.0
20260905031551 64 245 0.0 0.0 0.00 0.00 0.00 86 1013.0
20260905031108 64 251 0.0 0.0 0.00 0.00 0.00 85 1013.0
20260905030621 64 241 0.0 0.0 0.00 0.00 0.00 85 1013.0
20260905030036 64 235 0.0 0.0 0.00 0.00 0.00 86 1013.1
20260905025555 64 257 0.0 0.0 0.00 0.00 0.00 85 1013.2
20260905025114 64 261 0.0 0.0 0.00 0.00 0.00 85 1013.1
20260905024533 64 260 0.0 0.0 0.00 0.00 0.00 85 1013.3
20260905024050 64 269 0.0 0.0 0.00 0.00 0.00 85 1013.3
20260905023610 64 266 0.0 0.0 0.00 0.00 0.00 84 1013.3
20260905023141 64 244 0.0 0.0 0.00 0.00 0.00 84 1013.2
20260905022524 64 244 0.0 0.0 0.00 0.00 0.00 84 1013.2
20260905022036 64 238 0.0 0.0 0.00 0.00 0.00 84 1013.3
20260905021555 64 240 0.0 0.0 0.00 0.00 0.00 84 1013.5
20260905021112 64 204 0.0 0.0 0.00 0.00 0.00 83 1013.5